EHI
37 39 42 43 40 37 37 42 48 47 42 40 41 40 38 35 27 18 13 13 15 16 18 17 13 10 10 9 7 3 0 0 0 0 0 0 0 0 1 2 2 1 0
29 29 30 31 32 31 32 36 39 38 36 36 36 35 33 30 24 16 12 11 12 13 13 12 9 8 8 8 6 3 1 0 0 0 0 0 0 0 0 1 1 0 0
19 17 16 18 20 21 23 25 25 25 26 28 28 26 23 21 16 12 9 8 8 9 8 6 5 6 6 5 4 3 1 0 0 0 0 0 0 0 0 0 0 0 0
13 11 10 10 11 12 13 13 13 14 16 18 19 18 16 13 9 7 5 5 5 6 5 4 5 6 5 4 3 3 1 0 0 0 0 0 0 0 0 0 0 0 0
10 8 6 5 4 5 6 5 5 6 7 8 10 13 12 9 6 3 2 2 3 4 5 5 6 6 4 3 2 2 2 1 0 0 0 0 0 0 0 0 0 0 0
5 3 2 1 1 2 2 1 1 1 2 3 4 6 7 5 3 1 0 0 1 3 4 6 6 5 3 1 1 1 1 1 0 0 0 0 0 0 0 0 0 0 0
1 0 0 0 0 0 0 0 0 0 1 1 1 1 2 2 1 0 0 0 0 1 2 3 3 2 1 0 0 0 0 0 0 0 0 0 0 0 0 0 0 0 0
0 0 0 0 0 0 0 0 0 0 0 0 0 0 0 0 0 0 0 0 0 0 1 1 1 0 0 0 0 0 0 0 0 0 0 0 0 0 0 0 0 0 0
0 0 0 0 0 0 0 0 0 0 0 0 0 0 0 0 0 0 0 0 0 0 0 0 0 0 0 0 0 0 0 0 0 0 0 0 0 0 0 0 0 0 0
0 0 0 0 0 0 0 0 0 0 0 0 0 0 0 0 0 0 0 0 0 0 0 0 0 0 0 0 0 0 0 0 0 0 0 0 0 0 0 0 0 0 0
0 0 0 0 0 0 0 0 0 0 0 0 0 0 0 0 0 0 0 0 0 0 0 0 0 0 0 0 0 0 0 0 0 0 0 0 0 0 0 0 0 0 0
0 0 0 0 0 0 0 0 0 0 0 0 0 0 0 0 0 0 0 0 0 0 0 0 0 0 0 0 0 0 0 0 0 0 0 0 0 0 0 0 0 0 0
0 0 0 0 0 0 0 0 0 0 0 0 0 0 0 0 0 0 0 0 0 0 0 0 0 0 0 0 0 0 0 0 0 0 0 0 0 0 0 0 0 0 0
0 0 0 0 0 0 0 0 0 0 0 0 0 0 0 0 0 0 0 0 0 0 0 0 0 0 0 0 0 0 0 0 0 0 0 0 0 0 0 0 0 0 0
0 0 0 0 0 0 0 0 0 0 0 0 0 0 0 0 0 0 0 0 0 0 0 0 0 0 0 0 0 0 0 0 0 0 0 0 0 0 0 0 0 0 0
0 0 0 0 0 0 0 0 0 0 0 0 0 0 0 0 0 0 0 0 0 0 0 0 0 0 0 0 0 0 0 0 0 0 0 0 0 0 0 0 0 0 0
0 0 0 0 0 0 0 0 0 0 0 0 0 0 0 0 0 0 0 0 0 0 0 0 0 0 0 0 0 0 0 0 0 0 0 0 0 0 0 0 0 0 0
0 0 0 0 0 0 0 0 0 0 0 0 0 0 0 0 0 0 0 0 0 0 0 0 0 0 0 0 0 0 0 0 0 0 0 0 0 0 0 0 0 0 0
0 0 0 0 0 0 0 0 0 0 0 0 0 0 0 0 0 0 0 0 0 0 0 0 0 0 0 0 0 0 0 0 0 0 0 0 0 0 0 0 0 0 0
0 0 0 0 0 0 0 0 0 0 0 0 0 0 0 0 0 0 0 0 0 0 0 0 0 0 0 0 0 0 0 0 0 0 0 0 0 0 0 0 0 0 0
0 0 0 0 0 0 0 0 0 0 0 0 0 0 0 0 0 0 0 0 0 0 0 0 0 0 0 0 0 0 0 0 0 0 0 0 0 0 0 0 0 0 0
0 0 0 0 0 0 0 0 0 0 0 0 0 0 0 0 0 0 0 0 0 0 0 0 0 0 0 0 0 0 0 0 0 0 0 0 0 0 0 0 0 0 0
0 0 0 0 0 0 0 0 0 0 0 0 0 0 0 0 0 0 0 0 0 0 0 0 0 0 0 0 0 0 0 0 0 0 0 0 0 0 0 0 0 0 0
0 0 0 0 0 0 0 0 0 0 0 0 0 0 0 0 0 0 0 0 0 0 0 0 0 0 0 0 0 0 0 0 0 0 0 0 0 0 0 0 0 0 0
0 0 0 0 0 0 0 0 0 0 0 0 0 0 0 0 0 0 0 0 0 0 0 0 0 0 0 0 0 0 0 0 0 0 0 0 0 0 0 0 0 0 0
0 0 0 0 0 0 0 0 0 0 0 0 0 0 0 0 0 0 0 0 0 0 0 0 0 0 0 0 0 0 0 0 0 0 0 0 0 0 0 0 0 0 0
Wind_Speed
6 6 7 8 7 7 3 3 4 2 1 1 0 1 1 1 0 1 2 3 3 3 3 2 2 2 2 2 1 1 1 1 1 1 3 4 4 5 5 5 5 6 7
7 9 10 9 8 5 3 2 3 4 2 2 1 1 1 0 0 0 0 1 2 2 3 3 3 3 2 1 1 1 1 1 0 1 1 3 5 3 3 3 4 5 4
6 6 8 9 9 8 6 4 4 4 3 3 2 2 3 2 2 2 1 1 0 1 2 3 3 3 3 2 2 2 2 1 1 1 2 1 3 4 4 3 2 3 2
6 6 8 8 7 7 7 7 7 8 6 4 4 3 2 1 1 1 1 1 1 1 1 2 2 3 2 2 3 3 2 2 2 1 2 3 3 2 4 4 3 3 4
5 6 7 7 6 6 7 6 7 7 7 7 6 4 3 1 1 2 3 3 2 2 1 2 2 2 2 2 2 2 3 3 3 3 2 2 2 4 4 5 4 3 3
4 5 5 5 4 5 5 5 6 5 5 6 5 5 4 3 3 3 3 3 3 3 3 2 2 2 2 3 3 3 4 4 4 3 3 3 3 3 3 4 4 5 4
3 3 3 2 2 2 3 3 3 3 3 3 3 3 3 2 2 2 2 2 2 2 4 3 2 2 3 4 4 4 4 4 5 5 4 4 5 4 4 4 5 5 4
1 2 2 2 1 2 2 2 1 1 1 1 2 2 2 1 1 2 2 3 2 3 3 3 3 3 4 4 4 4 5 4 5 6 5 4 5 4 4 4 4 5 4
2 2 2 2 2 2 2 2 2 1 1 1 2 2 2 2 3 4 3 3 3 4 4 4 5 5 5 5 4 4 5 5 5 6 6 5 4 4 4 4 5 4 5
2 2 2 2 2 2 2 1 2 2 3 3 3 3 3 4 4 3 4 4 5 4 5 5 5 5 5 5 5 5 6 6 6 5 6 5 4 4 4 4 4 5 5
3 3 3 2 2 2 2 3 3 4 4 4 4 4 5 5 5 4 5 5 5 5 5 6 5 6 6 5 5 6 6 7 7 7 6 7 5 4 4 4 4 5 5
3 3 2 1 1 2 3 4 5 5 5 5 5 5 6 5 5 6 7 6 6 6 6 6 6 6 6 6 6 7 7 7 8 8 7 7 5 5 4 4 5 5 5
4 3 3 3 4 4 5 5 6 6 7 6 6 6 6 6 7 7 7 7 7 7 6 6 6 6 6 6 7 7 8 8 8 8 8 8 6 6 5 5 5 4 4
3 3 4 5 6 6 6 7 7 7 7 7 6 7 7 7 8 7 7 7 7 7 7 6 7 7 7 7 7 7 7 7 8 8 8 8 8 8 7 6 6 5 4
4 4 5 5 6 7 7 8 8 8 7 7 7 8 8 8 8 8 8 7 7 7 6 6 7 7 7 7 7 6 8 7 7 7 7 8 10 11 8 6 5 5 4
6 6 7 7 7 8 8 8 8 8 7 7 8 8 8 8 8 8 7 7 7 7 7 7 7 7 7 9 11 9 7 7 7 7 7 7 9 10 11 11 10 10 8
8 8 8 8 9 9 8 8 8 8 7 8 8 8 8 8 8 8 7 7 7 7 7 8 7 8 9 12 13 12 8 7 7 7 7 7 6 7 6 7 9 10 12
8 9 8 8 8 8 8 8 7 7 7 8 8 8 8 8 8 7 7 7 6 6 7 8 8 8 10 13 13 12 8 7 8 8 8 8 7 7 6 5 5 6 6
9 9 8 9 8 8 8 8 8 8 8 9 9 8 8 8 8 8 8 7 6 7 7 7 8 9 10 12 13 11 5 6 8 8 7 8 7 9 9 6 5 5 4
8 8 9 8 8 9 8 8 9 9 10 10 9 8 8 8 8 8 8 7 6 7 7 7 8 9 9 11 13 11 4 5 6 5 5 9 9 9 9 7 7 6 5
10 9 9 8 9 10 9 9 10 11 11 10 9 8 8 8 8 8 7 6 6 6 6 7 8 8 9 10 12 11 5 5 5 4 4 5 9 10 9 8 7 8 6
10 10 9 9 10 10 9 10 11 11 10 9 9 8 8 8 8 6 6 6 6 6 7 6 7 6 6 8 8 10 9 7 5 5 4 5 9 9 8 6 6 9 8
10 9 10 11 11 10 9 11 11 10 9 9 9 9 9 7 7 7 7 6 5 5 5 5 5 5 4 4 7 7 8 8 5 4 6 7 9 7 5 5 8 8 6
10 10 11 12 12 11 11 10 10 10 9 10 9 8 8 7 7 5 5 5 5 5 5 5 5 4 3 3 2 2 3 5 4 3 5 7 7 5 4 5 5 4 5
10 9 10 12 13 13 12 12 11 9 10 10 9 8 7 7 6 6 5 5 6 6 6 5 4 4 4 5 5 3 3 3 3 4 3 3 3 3 3 3 3 4 5
11 11 12 13 14 14 13 12 10 9 9 8 8 6 5 5 5 5 5 7 8 10 11 10 7 5 6 5 5 5 5 5 7 5 4 4 4 4 5 5 4 4 5
Wind_Direction
75 67 68 66 78 84 87 140 143 136 110 112 126 151 217 245 208 187 177 176 179 168 151 160 169 165 171 206 216 201 272 281 292 330 313 297 272 258 252 249 249 249 245
49 46 45 52 49 62 71 75 107 106 113 123 146 215 155 101 54 15 125 165 176 180 169 173 186 183 179 196 198 172 173 265 171 155 318 324 326 317 277 263 251 255 253
66 64 58 45 47 42 50 55 45 62 59 63 69 42 46 40 32 360 345 314 157 161 183 194 189 186 176 191 207 188 172 217 259 184 179 216 274 309 307 295 280 277 269
55 63 71 61 49 50 60 53 44 46 38 49 69 74 80 76 286 280 281 279 245 228 218 212 191 187 182 195 212 187 181 180 232 262 216 205 205 244 300 308 303 298 284
58 66 68 73 66 60 61 58 52 44 38 38 46 54 53 30 337 359 353 336 318 298 270 229 208 198 199 205 212 208 206 192 201 214 225 238 235 219 232 279 299 308 287
70 74 72 73 66 61 64 60 61 45 38 40 34 37 34 17 18 10 352 335 326 328 331 305 257 230 222 220 216 217 222 220 218 218 211 209 220 221 220 250 274 283 280
78 75 81 83 82 82 83 75 70 51 32 39 29 21 18 9 5 334 316 315 318 313 313 321 303 278 254 244 231 223 229 227 229 228 226 221 225 222 220 240 264 272 280
123 152 180 175 165 145 127 114 101 60 0 17 353 341 347 345 313 301 297 297 282 277 288 297 292 286 277 269 251 243 236 232 232 238 233 230 230 223 221 223 240 275 281
191 192 198 196 194 178 177 175 170 217 266 277 287 289 292 291 286 289 292 288 285 288 294 289 284 279 274 270 263 254 250 242 236 238 237 237 234 227 227 223 215 230 265
217 217 215 219 212 199 198 202 204 233 255 268 272 277 273 273 273 282 286 283 282 283 291 289 282 277 271 268 265 263 253 246 244 239 238 241 238 233 228 226 223 217 229
226 234 234 225 212 205 209 224 234 243 255 260 261 268 270 270 270 266 267 267 269 272 272 273 274 272 267 263 260 261 257 250 249 247 239 239 237 236 233 229 228 228 221
253 257 263 269 273 269 264 257 252 254 256 254 254 257 262 265 266 266 267 265 262 261 263 264 268 271 271 263 257 258 258 251 249 246 239 239 240 238 235 231 230 230 221
310 319 322 301 284 278 276 273 268 264 261 257 254 256 259 259 259 260 262 263 261 262 264 263 262 265 268 265 260 253 252 249 246 242 236 235 229 237 236 232 230 228 230
331 325 304 289 280 275 269 264 262 257 256 253 249 250 251 250 252 255 257 258 258 259 261 259 256 256 260 264 263 256 253 251 251 243 234 230 224 228 228 230 227 219 223
315 299 284 275 272 270 267 261 260 259 257 254 251 251 250 249 251 254 255 254 253 257 253 253 257 258 259 260 262 260 259 253 254 250 239 232 231 230 226 227 219 209 214
291 284 277 272 268 267 266 264 261 259 253 249 250 250 251 251 251 252 250 250 253 256 255 253 255 257 264 268 268 264 261 252 248 249 247 242 238 236 229 229 225 216 213
287 283 277 271 270 269 266 262 259 259 257 255 256 256 254 253 253 254 251 248 251 253 256 256 252 252 256 260 262 264 261 249 243 237 237 242 236 227 220 225 229 231 224
290 286 280 277 274 270 269 265 265 264 260 258 259 259 255 254 252 250 249 248 246 248 253 256 253 253 259 258 255 259 258 250 243 233 228 230 231 223 207 211 222 225 219
288 283 281 281 282 280 277 277 275 270 267 266 263 260 256 254 253 251 251 249 249 252 252 253 252 252 259 257 253 253 247 248 247 240 228 220 224 214 202 200 207 212 220
293 292 292 293 292 287 285 283 280 277 272 269 264 260 256 254 254 251 251 249 246 250 253 256 252 249 253 253 250 245 228 240 247 244 229 220 211 203 196 191 191 198 200
299 299 298 297 291 291 292 287 285 279 274 273 270 266 259 257 255 252 249 247 250 254 255 259 260 254 248 251 248 242 223 224 236 236 231 215 199 195 195 191 195 194 181
308 307 304 301 298 296 295 292 289 287 285 281 278 273 267 267 275 261 256 253 252 256 259 261 268 261 251 244 245 242 224 212 217 226 222 207 190 187 186 187 186 172 162
309 307 304 303 303 302 299 297 297 296 293 287 281 276 273 267 264 260 260 262 254 250 254 253 259 262 256 253 247 230 220 216 214 218 204 189 179 175 178 178 166 159 155
309 309 311 311 310 309 304 297 296 295 292 288 284 278 273 269 264 258 253 253 253 252 252 249 251 254 254 245 232 212 209 214 208 190 174 164 161 166 166 158 152 148 149
314 314 313 311 310 309 304 301 298 296 293 288 284 282 275 266 265 259 249 249 247 238 237 242 233 231 243 235 210 192 193 194 177 148 142 150 153 155 148 141 131 126 128
318 318 317 314 311 310 306 304 300 295 292 290 286 281 278 273 265 265 276 265 256 259 250 244 234 230 228 212 200 188 178 168 158 149 156 160 161 160 152 144 129 123 125